TimeCST,TemperatureF,Dew PointF,Humidity,Sea Level PressureIn,VisibilityMPH,Wind Direction,Wind SpeedMPH,Gust SpeedMPH,PrecipitationIn,Events,Conditions,WindDirDegrees,DateUTC
12:15 AM,-16.6,-22.0,76,30.40,10.0,North,3.5,-,N/A,,Clear,360,2013-02-20 06:15:00
12:35 AM,-16.6,-22.0,76,30.41,10.0,NNW,4.6,-,N/A,,Clear,330,2013-02-20 06:35:00
1:35 AM,-18.4,-23.8,76,30.41,10.0,NNW,5.8,-,N/A,,Clear,330,2013-02-20 07:35:00
2:15 AM,-18.4,-25.6,70,30.43,10.0,West,5.8,-,N/A,,Clear,280,2013-02-20 08:15:00
2:35 AM,-22.0,-25.6,83,30.42,10.0,NW,4.6,-,N/A,,Clear,320,2013-02-20 08:35:00
2:55 AM,-22.0,-25.6,83,30.42,10.0,Calm,Calm,-,N/A,,Clear,0,2013-02-20 08:55:00
3:15 AM,-22.0,-25.6,83,30.42,10.0,Calm,Calm,-,N/A,,Clear,0,2013-02-20 09:15:00
3:35 AM,-18.4,-23.8,76,30.42,10.0,Calm,Calm,-,N/A,,Clear,0,2013-02-20 09:35:00
3:55 AM,-20.2,-25.6,76,30.41,10.0,North,3.5,-,N/A,,Clear,10,2013-02-20 09:55:00
4:15 AM,-20.2,-25.6,76,30.42,1.0,Calm,Calm,-,N/A,Snow,Light Snow,0,2013-02-20 10:15:00
4:35 AM,-18.4,-25.6,70,30.42,10.0,Calm,Calm,-,N/A,,Clear,0,2013-02-20 10:35:00
4:55 AM,-20.2,-25.6,76,30.42,10.0,Calm,Calm,-,N/A,,Clear,0,2013-02-20 10:55:00
5:15 AM,-22.0,-27.4,76,30.42,10.0,WSW,3.5,-,N/A,,Clear,250,2013-02-20 11:15:00
5:35 AM,-22.0,-27.4,76,30.41,10.0,Calm,Calm,-,N/A,,Clear,0,2013-02-20 11:35:00
6:35 AM,-20.2,-25.6,76,30.41,10.0,Calm,Calm,-,N/A,,Clear,0,2013-02-20 12:35:00
6:55 AM,-22.0,-27.4,76,30.41,10.0,Calm,Calm,-,N/A,,Clear,0,2013-02-20 12:55:00
7:15 AM,-22.0,-27.4,76,30.41,10.0,Calm,Calm,-,N/A,,Clear,0,2013-02-20 13:15:00
7:55 AM,-23.8,-27.4,83,30.43,10.0,Calm,Calm,-,N/A,,Clear,0,2013-02-20 13:55:00
8:15 AM,-22.0,-25.6,83,30.42,10.0,Calm,Calm,-,N/A,,Clear,0,2013-02-20 14:15:00
8:35 AM,-18.4,-23.8,76,30.41,10.0,East,3.5,-,N/A,,Clear,80,2013-02-20 14:35:00
8:55 AM,-14.8,-20.2,77,30.40,10.0,East,8.1,-,N/A,,Clear,90,2013-02-20 14:55:00
9:15 AM,-9.4,-14.8,77,30.40,10.0,East,9.2,-,N/A,,Clear,100,2013-02-20 15:15:00
9:35 AM,-9.4,-14.8,77,30.41,10.0,ESE,3.5,-,N/A,,Clear,120,2013-02-20 15:35:00
9:55 AM,-9.4,-16.6,71,30.42,10.0,South,4.6,-,N/A,,Clear,180,2013-02-20 15:55:00
10:15 AM,-7.6,-13.0,77,30.41,10.0,Calm,Calm,-,N/A,,Clear,0,2013-02-20 16:15:00
10:35 AM,-9.4,-14.8,77,30.42,10.0,SSW,3.5,-,N/A,,Clear,210,2013-02-20 16:35:00
11:35 AM,-5.8,-13.0,71,30.42,10.0,Calm,Calm,-,N/A,,Clear,0,2013-02-20 17:35:00
11:55 AM,-4.0,-11.2,71,30.42,10.0,SW,4.6,-,N/A,,Clear,220,2013-02-20 17:55:00
12:15 PM,-4.0,-9.4,78,30.42,10.0,Calm,Calm,-,N/A,,Clear,0,2013-02-20 18:15:00
12:35 PM,-4.0,-9.4,78,30.41,10.0,SSE,3.5,-,N/A,,Clear,160,2013-02-20 18:35:00
12:55 PM,-0.4,-7.6,72,30.41,10.0,SE,3.5,-,N/A,,Clear,130,2013-02-20 18:55:00
1:15 PM,3.2,-5.8,66,30.40,10.0,ESE,4.6,-,N/A,,Clear,110,2013-02-20 19:15:00
1:35 PM,3.2,-5.8,66,30.39,10.0,East,6.9,-,N/A,,Clear,100,2013-02-20 19:35:00
2:15 PM,5.0,-4.0,66,30.40,10.0,SSE,4.6,-,N/A,,Clear,150,2013-02-20 20:15:00
2:55 PM,5.0,-4.0,66,30.40,10.0,South,6.9,-,N/A,,Clear,180,2013-02-20 20:55:00
3:15 PM,5.0,-4.0,66,30.39,10.0,South,6.9,-,N/A,,Clear,180,2013-02-20 21:15:00
3:35 PM,5.0,-4.0,66,30.39,10.0,South,5.8,-,N/A,,Clear,170,2013-02-20 21:35:00
3:55 PM,5.0,-4.0,66,30.38,10.0,SE,4.6,-,N/A,,Clear,140,2013-02-20 21:55:00
4:35 PM,5.0,-2.2,72,30.36,10.0,East,5.8,-,N/A,,Clear,100,2013-02-20 22:35:00
5:15 PM,6.8,-0.4,72,30.36,10.0,Calm,Calm,-,N/A,,Clear,0,2013-02-20 23:15:00
5:55 PM,5.0,-0.4,78,30.34,10.0,East,5.8,-,N/A,,Clear,90,2013-02-20 23:55:00
6:15 PM,6.8,-0.4,72,30.34,10.0,East,8.1,-,N/A,,Clear,100,2013-02-21 00:15:00
6:35 PM,8.6,-0.4,67,30.33,10.0,East,6.9,-,N/A,,Clear,100,2013-02-21 00:35:00
6:55 PM,8.6,-0.4,67,30.34,10.0,ESE,6.9,-,N/A,,Clear,110,2013-02-21 00:55:00
7:15 PM,6.8,-0.4,72,30.34,10.0,SE,4.6,-,N/A,,Clear,140,2013-02-21 01:15:00
7:35 PM,5.0,-2.2,72,30.34,10.0,ESE,6.9,-,N/A,,Clear,110,2013-02-21 01:35:00
7:55 PM,6.8,-2.2,67,30.33,10.0,ESE,6.9,-,N/A,,Clear,110,2013-02-21 01:55:00
8:15 PM,6.8,-2.2,67,30.33,10.0,SE,5.8,-,N/A,,Clear,130,2013-02-21 02:15:00
8:35 PM,6.8,-2.2,67,30.32,10.0,ESE,8.1,-,N/A,,Clear,120,2013-02-21 02:35:00
8:55 PM,6.8,-2.2,67,30.32,10.0,ESE,5.8,-,N/A,,Clear,120,2013-02-21 02:55:00
9:15 PM,6.8,-2.2,67,30.32,10.0,ESE,6.9,-,N/A,,Clear,110,2013-02-21 03:15:00
9:35 PM,6.8,-2.2,67,30.31,10.0,ESE,8.1,-,N/A,,Clear,110,2013-02-21 03:35:00
10:15 PM,8.6,-2.2,62,30.32,10.0,ESE,8.1,-,N/A,,Clear,120,2013-02-21 04:15:00
10:35 PM,8.6,-2.2,62,30.32,10.0,ESE,10.4,-,N/A,,Clear,110,2013-02-21 04:35:00
10:55 PM,8.6,-2.2,62,30.33,10.0,ESE,9.2,-,N/A,,Clear,110,2013-02-21 04:55:00
11:15 PM,8.6,-2.2,62,30.33,10.0,ESE,11.5,-,N/A,,Clear,110,2013-02-21 05:15:00
11:35 PM,6.8,-4.0,61,30.33,10.0,ESE,11.5,-,N/A,,Clear,110,2013-02-21 05:35:00
11:55 PM,6.8,-4.0,61,30.33,10.0,ESE,6.9,-,N/A,,Clear,120,2013-02-21 05:55:00